sat.trackr.live / text

‹ back to catalog

COSMOS 2509 (RODNIK-S *)

NORAD 40922 · 2015-050C

PAYLOAD ACTIVE UNKNOWN

§ Identity

Operator
Country
CIS
Launch date
2015-09-23
Launch site
PLMSC
Launch vehicle
Mass (kg)
RCS (m²)
1.50

External: N2YO · Heavens-Above · Gunter

§ Orbital elements

Epoch: 2026-05-25T04:26:56.439744Z

Period
115.86 min
Inclination
82.4866°
Eccentricity
0.0015836
Mean motion
12.42883075 rev/d
Perigee alt
1,481.9 km
Apogee alt
1,506.9 km
Semi-major
7,872.5 km
B*
4.6057e-4
RAAN
92.6036°
Arg perigee
89.5126°
Mean anomaly
270.7768°
Rev number
48,402

§ Raw data

COSMOS 2509 (RODNIK-S *)1 40922U 15050C   26145.18537546  .00000074  00000+0  46057-3 0  99902 40922  82.4866  92.6036 0015836  89.5126 270.7768 12.42883075484028

JSON: /api/v1/satellites/40922 · /tle

For live sub-satellite position, see the globe view (requires WebGL).

§ Visibility from observer

Set your observer location to see the next 7 days of passes ≥ 10°. The values pass through the URL so the page stays shareable.

No JS? Fill the form by hand. The geolocation button needs JavaScript.

§ Radio — SatNOGS DB

ModeDescriptionDownlinkUplink
FM UHF Unknown 388.687 MHz

1 transmitter · refreshed weekly from db.satnogs.org